Regional Weather Roundup
Issued by NWS

Home | Current Version | Previous Version | Text Only | Print | Product List | Glossary On
Versions: 1 2 3 4 5 6 7 8 9 10 11 12 13 14 15 16 17 18 19 20 21 22 23 24 25 26 27 28 29 30 31 32 33 34 35 36 37 38 39 40 41 42 43 44 45 46 47 48 49 50
000
ASUS42 KTBW 270917
RWRFL
FLORIDA REGIONAL WEATHER ROUNDUP
NATIONAL WEATHER SERVICE TAMPA BAY RUSKIN FL
500 AM EDT WED MAY 27 2015

NOTE: "FAIR" INDICATES FEW OR NO CLOUDS BELOW 12,000 FEET WITH NO
SIGNIFICANT WEATHER AND/OR OBSTRUCTIONS TO VISIBILITY.


FLZ001>010-012>015-112-114-115-271000-
PANHANDLE FLORIDA

CITY           SKY/WX    TMP DP  RH WIND       PRES   REMARKS
PENSACOLA      CLOUDY    71  70  96 E7        30.12R
PENSACOLA NAS  CLOUDY    76  73  91 VRB7      30.11R
MILTON NAS     PTCLDY    68  66  93 E3        30.14
CRESTVIEW      MOCLDY    68  66  93 CALM      30.15S
DUKE FIELD     FAIR      69  66  88 SE3       30.13R
VALPARAISO     MOCLDY    72  68  88 E5        30.13R
MARY ESTHER    MOCLDY    74  69  85 E2        30.12R
TRI COUNTY     FAIR      67  67 100 CALM      30.15F
PANAMA CITY    FAIR      69  66  90 NE3       30.12F
TYNDALL AFB    CLOUDY    72  68  88 E3        30.11F
APALACHICOLA   MOCLDY    77  70  79 VRB3      30.11S

STATION/POSITION SKY/WX   TEMP    WIND        PRES    WAVE   SWELL
                          AIR SEA DIR/SP/G            HT/PER HT/PER
                          (F)     (DEG/KT/KT) (MB)    (FT/S) (FT/S)
30.1N   87.6W              79 80  140/  6/  8 1018.9R   3/ 7   3/ 7
29.2N   88.2W              78 79  160/  6/  6 1019.3R   3/ 7   3/ 7
28.8N   86.0W              80 81  120/ 17/ 21 1018.5F   4/ 7
PANAMA CITY BEAC           72 80   80/  4/  6 1020.2F
CAPE SAN BLAS    NOT AVBL
TOWER C                    78     130/ 15/ 17 1019.1F
28.5N   84.5W              79 80  120/ 16/ 19 1019.1S   4/ 5

$$
FLZ011-016>038-118-127-128-134-139-239-271000-
NORTH FLORIDA

CITY           SKY/WX    TMP DP  RH WIND       PRES   REMARKS
MARIANNA       MOCLDY    68  68 100 CALM      30.13F
TALLAHASSEE    MOCLDY    71  68  90 CALM      30.14S
PERRY          MOCLDY    70  69  97 CALM      30.14S
CROSS CITY       N/A     71  68  90 CALM      30.12S
LAKE CITY      FAIR      70  70 100 CALM      30.14S
GAINESVILLE    CLOUDY    73  70  90 W5        30.15R
MAYPORT NAS    CLOUDY    77  68  73 E10       30.14S
JACKSONVILLE   MOCLDY    71  69  93 NE7       30.14F
JAX NAS        CLOUDY    79  68  69 E5        30.14F
JAX CRAIG      MOCLDY    76  68  76 E8        30.13F
JAX CECIL      CLOUDY    73  70  88 CALM      30.14S
FERNANDINA BEA PTSUNNY   81  72  74 SE5       30.15R
ST AUGUSTINE   CLOUDY    77  69  76 SE17      30.13F

STATION/POSITION SKY/WX   TEMP    WIND        PRES    WAVE   SWELL
                          AIR SEA DIR/SP/G            HT/PER HT/PER
                          (F)     (DEG/KT/KT) (MB)    (FT/S) (FT/S)
SHELL POINT                77     120/ 11/ 16   N/A
KEATON BEACH               71      40/  2/  2 1020.4R
CEDAR KEY                  77     110/ 13/ 16 1020.5R
FERNANDINA                 77 81  140/  5/ 10 1020.3F
30.7N   81.3W                 79                N/A     3/ 5
MAYPORT                    77 79  130/  9/ 13 1020.7F
31.4N   80.9W              77 77  140/ 12/ 14 1021.2F   3/ 6   2/ 6
ST AUGUSTINE               77 78  120/ 17/ 18 1020.7F

$$
FLZ040-043>046-052-053-057-058-063-144-271000-
INTERIOR CENTRAL FLORIDA

CITY           SKY/WX    TMP DP  RH WIND       PRES   REMARKS
OCALA          CLOUDY    72  66  83 CALM      30.13S
THE VILLAGES     N/A     73  72  94 E3        30.03F
LEESBURG       CLOUDY    74  69  85 SE5       30.14R
SANFORD        MOCLDY    71  68  90 E10       30.11F
ORLANDO EXEC   CLOUDY    73  68  84 E9        30.12F
ORLANDO INTL   CLOUDY    74  68  81 E8        30.13F
WINTER HAVEN   CLOUDY    75  70  84 SE7       30.13F
LAKELAND       CLOUDY    72  70  94 E6        30.12F
BARTOW         FAIR      70  70 100 CALM      30.14S
OKEECHOBEE     MOCLDY    64  64 100 CALM      30.13S

$$
FLZ041-047-054-059-064-141-147-271000-
EAST CENTRAL FLORIDA

CITY           SKY/WX    TMP DP  RH WIND       PRES   REMARKS
DAYTONA BEACH  CLOUDY    76  66  71 E8        30.13F
DELAND           N/A     72  68  88 E13       30.11F
JFK SPACE CTR  MOCLDY    75  67  76 E7        30.12F
CAPE CANAVERAL MOCLDY    76  67  73 E6        30.12F
PATRICK AFB    MOCLDY    78  67  68 E16       30.12F
MELBOURNE      MOCLDY    78  66  66 E15       30.12F
VERO BEACH     PTCLDY    77  65  66 E8        30.13F
FT PIERCE      PTCLDY    77  67  71 E9        30.12F
STUART         PTCLDY    77  63  61 E10       30.13F

STATION/POSITION SKY/WX   TEMP    WIND        PRES    WAVE   SWELL
                          AIR SEA DIR/SP/G            HT/PER HT/PER
                          (F)     (DEG/KT/KT) (MB)    (FT/S) (FT/S)
28.5N   80.2W              78 80  100/ 12/ 14 1021.0F
28.9N   78.5W              77 81   90/ 10/ 12 1021.9F
TRIDENT PIER               78 82   90/  7/ 10 1021.4F
28.4N   80.5W                 82                N/A     3/ 7
27.5N   80.2W                 81                N/A     4/ 5

$$
FLZ050-056-061-142-242-148-248-149-249-151-251-155-255-
160-260-271000-
WEST CENTRAL FLORIDA

CITY           SKY/WX    TMP DP  RH WIND       PRES   REMARKS
CRYSTAL RIVER  FAIR      72  70  94 CALM      30.12S
INVERNESS      FAIR      72  72 100 CALM      30.12F
BROOKSVILLE    CLOUDY    72  70  93 E3        30.13F
CLEARWATER     PTCLDY    75  71  87 SE13      30.11S
TAMPA INTL     MOCLDY    75  70  84 SE6       30.12S
TAMPA EXEC       N/A     73  70  88 MISG        N/A
PLANT CITY     CLOUDY    73  72  94 E5        30.13F
MACDILL AFB    MOCLDY    74  74  99 SE9       30.11S
PETER O KNIGHT MOCLDY    77  72  83 SE8       30.12S
ST PETERSBURG  MOCLDY    77  71  82 SE16      30.10F
SARASOTA       MOCLDY    74  70  87 E7        30.10S
VENICE         FAIR      73  73 100 E7        30.12S

STATION/POSITION SKY/WX   TEMP    WIND        PRES    WAVE   SWELL
                          AIR SEA DIR/SP/G            HT/PER HT/PER
                          (F)     (DEG/KT/KT) (MB)    (FT/S) (FT/S)
CEDAR KEY                  77     110/ 13/ 16 1020.5R
28.5N   84.5W              79 80  120/ 16/ 19 1019.1S   4/ 5
27.3N   84.2W                 81                N/A     4/ 5
CLEARWATER BEACH           76 84   90/  8/ 12 1019.7F
MIDDLE TAMPA BAY           76     110/ 11/ 13 1020.1F
VENICE                     74 85   60/  6/  8 1019.2F

$$
FLZ066-069-070-075>078-162-262-165-265-271000-
SOUTHWEST FLORIDA AND KEYS

CITY           SKY/WX    TMP DP  RH WIND       PRES   REMARKS
PUNTA GORDA    CLOUDY    71  70  96 N3        30.13S
FT MYERS       MOCLDY    74  70  87 E5        30.09F
SOUTHWEST INTL MOCLDY    74  69  85 E7        30.10F
NAPLES         PTCLDY    74  70  87 E7        30.09F
MARCO ISLAND     N/A     72  66  83 E7        30.09F
IMMOKALEE      SUNNY    N/A N/A N/A CALM      30.11S
MARATHON       CLEAR     80  69  69 E13G20    30.07S
KEY WEST NAS   MOCLDY    80  70  71 E15       30.07S
KEY WEST INTL  PTCLDY    80  71  74 E14G23    30.07S

STATION/POSITION SKY/WX   TEMP    WIND        PRES    WAVE   SWELL
                          AIR SEA DIR/SP/G            HT/PER HT/PER
                          (F)     (DEG/KT/KT) (MB)    (FT/S) (FT/S)
VENICE                     74 85   60/  6/  8 1019.2F
NAPLES                     75 84   80/  4/  8 1019.0F
26.0N   85.6W              81 82   90/ 16/ 19 1017.5R   4/ 6   2/ 8
DRY TORTUGAS               82      90/ 20/ 22 1017.6F
NW FL BAY                  80      80/ 13/ 15 1018.9
SAND KEY                   80      90/ 21/ 24 1017.8F
SOMBRERO KEY               80      80/ 19/ 20 1018.6R
LONG KEY                   80 83   90/ 20/ 22 1019.2F
MOLASSES REEF              80 83   80/ 19/ 22 1018.3F

$$
FLZ067-068-071>074-168-172>174-271000-
SOUTHEAST FLORIDA

CITY           SKY/WX    TMP DP  RH WIND       PRES   REMARKS
W PALM BEACH   PTCLDY    79  66  64 E14       30.12F
FT LAUDER-EXEC PTCLDY    78  69  73 E13       30.10F
FT LAUDERDALE  PTCLDY    79  70  74 E12       30.09F
POMPANO BEACH  CLEAR     78  67  68 E14       30.10F
PEMBROKE PINES CLEAR     77  67  71 E8        30.11F
OPA LOCKA      CLEAR     78  67  68 E10       30.10F
MIAMI          PTCLDY    79  67  66 E14       30.09F
WEST KENDALL   CLEAR     77  68  73 E10       30.09F
HOMESTEAD      CLEAR     79  68  69 NE12      30.08F

STATION/POSITION SKY/WX   TEMP    WIND        PRES    WAVE   SWELL
                          AIR SEA DIR/SP/G            HT/PER HT/PER
                          (F)     (DEG/KT/KT) (MB)    (FT/S) (FT/S)
PORT EVERGLADES            79      80/ 10/ 15 1019.1F
VIRGINIA KEY               80 83   70/ 14/ 19 1018.8F
LAKE WORTH                 79 82   90/ 14/ 17 1019.5F
SETTLEMENT POINT           78      90/ 17/ 20 1020.4F

$$



USA.gov is the U.S. government's official web portal to all federal, state and local government web resources and services.